Time,TemperatureF,DewpointF,PressureIn,WindDirection,WindDirectionDegrees,WindSpeedMPH,WindSpeedGustMPH,Humidity,HourlyPrecipIn,Conditions,Clouds,dailyrainin,SoftwareType,DateUTC
2013-05-23 00:01:00,70.2,61.0,29.74,SSW,196,5.0,20.0,72,0.00,,,0.00,weatherlink.com 1.10,2013-05-23 04:01:00,
2013-05-23 01:14:00,67.3,61.0,29.74,SE,137,6.0,18.0,79,0.00,,,0.00,weatherlink.com 1.10,2013-05-23 05:14:00,
2013-05-23 01:16:00,67.2,61.0,29.74,South,185,8.0,17.0,79,0.00,,,0.00,weatherlink.com 1.10,2013-05-23 05:16:00,
2013-05-23 01:32:00,66.9,60.0,29.74,SSW,193,6.0,19.0,79,0.00,,,0.00,weatherlink.com 1.10,2013-05-23 05:32:00,
2013-05-23 01:46:00,66.4,60.0,29.74,SE,124,1.0,12.0,80,0.00,,,0.00,weatherlink.com 1.10,2013-05-23 05:46:00,
2013-05-23 02:02:00,66.1,60.0,29.73,SSE,160,6.0,13.0,80,0.00,,,0.00,weatherlink.com 1.10,2013-05-23 06:02:00,
2013-05-23 02:17:00,66.4,60.0,29.73,SSE,168,8.0,15.0,79,0.00,,,0.00,weatherlink.com 1.10,2013-05-23 06:17:00,
2013-05-23 02:31:00,66.0,60.0,29.73,SSW,196,4.0,10.0,80,0.00,,,0.00,weatherlink.com 1.10,2013-05-23 06:31:00,
2013-05-23 02:47:00,66.0,60.0,29.72,South,169,5.0,9.0,81,0.00,,,0.00,weatherlink.com 1.10,2013-05-23 06:47:00,
2013-05-23 03:03:00,66.2,60.0,29.72,South,182,7.0,11.0,80,0.00,,,0.00,weatherlink.com 1.10,2013-05-23 07:03:00,
2013-05-23 03:17:00,67.3,60.0,29.71,South,171,4.0,13.0,77,0.00,,,0.00,weatherlink.com 1.10,2013-05-23 07:17:00,
2013-05-23 03:33:00,67.2,60.0,29.71,SE,139,5.0,14.0,77,0.00,,,0.00,weatherlink.com 1.10,2013-05-23 07:33:00,
2013-05-23 03:47:00,66.8,60.0,29.72,ESE,123,2.0,9.0,78,0.00,,,0.00,weatherlink.com 1.10,2013-05-23 07:47:00,
2013-05-23 04:03:00,66.5,60.0,29.72,SE,135,1.0,7.0,79,0.00,,,0.00,weatherlink.com 1.10,2013-05-23 08:03:00,
2013-05-23 04:17:00,66.6,60.0,29.72,East,101,2.0,9.0,79,0.00,,,0.00,weatherlink.com 1.10,2013-05-23 08:17:00,
2013-05-23 04:33:00,66.7,60.0,29.73,SE,131,2.0,8.0,79,0.00,,,0.00,weatherlink.com 1.10,2013-05-23 08:33:00,
2013-05-23 04:48:00,66.5,60.0,29.73,SE,141,1.0,7.0,80,0.00,,,0.00,weatherlink.com 1.10,2013-05-23 08:48:00,
2013-05-23 05:03:00,66.7,60.0,29.73,SSE,157,2.0,5.0,80,0.00,,,0.00,weatherlink.com 1.10,2013-05-23 09:03:00,
2013-05-23 05:18:00,66.3,61.0,29.73,SSW,193,3.0,7.0,82,0.00,,,0.00,weatherlink.com 1.10,2013-05-23 09:18:00,
2013-05-23 05:32:00,66.5,61.0,29.74,SSW,195,2.0,8.0,82,0.00,,,0.00,weatherlink.com 1.10,2013-05-23 09:32:00,
2013-05-23 05:48:00,65.7,61.0,29.74,SE,145,2.0,3.0,85,0.00,,,0.00,weatherlink.com 1.10,2013-05-23 09:48:00,
2013-05-23 06:03:00,65.1,61.0,29.74,SE,127,1.0,6.0,86,0.00,,,0.00,weatherlink.com 1.10,2013-05-23 10:03:00,
2013-05-23 06:19:00,65.0,61.0,29.75,SSE,164,4.0,10.0,87,0.00,,,0.00,weatherlink.com 1.10,2013-05-23 10:19:00,
2013-05-23 06:33:00,65.0,61.0,29.75,SE,144,4.0,10.0,87,0.00,,,0.00,weatherlink.com 1.10,2013-05-23 10:33:00,
2013-05-23 06:49:00,64.7,61.0,29.75,SE,146,2.0,11.0,88,0.00,,,0.00,weatherlink.com 1.10,2013-05-23 10:49:00,
2013-05-23 07:04:00,64.2,61.0,29.75,SE,138,3.0,11.0,90,0.00,,,0.00,weatherlink.com 1.10,2013-05-23 11:04:00,
2013-05-23 07:19:00,63.8,61.0,29.75,SSE,152,5.0,10.0,91,0.00,,,0.00,weatherlink.com 1.10,2013-05-23 11:19:00,
2013-05-23 07:34:00,63.7,61.0,29.74,NNE,26,1.0,10.0,91,0.00,,,0.00,weatherlink.com 1.10,2013-05-23 11:34:00,
2013-05-23 07:48:00,63.7,61.0,29.75,SSE,161,5.0,11.0,90,0.00,,,0.00,weatherlink.com 1.10,2013-05-23 11:48:00,
2013-05-23 08:04:00,63.7,61.0,29.76,South,179,4.0,10.0,91,0.00,,,0.00,weatherlink.com 1.10,2013-05-23 12:04:00,
2013-05-23 08:20:00,63.8,62.0,29.77,SSE,153,1.0,10.0,92,0.00,,,0.00,weatherlink.com 1.10,2013-05-23 12:20:00,
2013-05-23 08:34:00,63.8,62.0,29.77,SSE,168,1.0,8.0,92,0.01,,,0.01,weatherlink.com 1.10,2013-05-23 12:34:00,
2013-05-23 08:50:00,64.1,62.0,29.77,SSE,158,4.0,10.0,92,0.01,,,0.01,weatherlink.com 1.10,2013-05-23 12:50:00,
2013-05-23 09:04:00,64.3,62.0,29.77,SE,145,5.0,12.0,91,0.01,,,0.01,weatherlink.com 1.10,2013-05-23 13:04:00,
2013-05-23 09:20:00,64.9,62.0,29.77,South,170,10.0,12.0,90,0.01,,,0.01,weatherlink.com 1.10,2013-05-23 13:20:00,
2013-05-23 09:34:00,65.7,62.0,29.76,SSW,199,5.0,14.0,89,0.00,,,0.01,weatherlink.com 1.10,2013-05-23 13:34:00,
2013-05-23 09:50:00,67.1,63.0,29.76,SSE,154,9.0,14.0,87,0.00,,,0.01,weatherlink.com 1.10,2013-05-23 13:50:00,
2013-05-23 10:04:00,68.3,63.0,29.76,South,169,8.0,18.0,84,0.00,,,0.01,weatherlink.com 1.10,2013-05-23 14:04:00,
2013-05-23 10:20:00,69.9,63.0,29.76,SSW,193,12.0,16.0,79,0.00,,,0.01,weatherlink.com 1.10,2013-05-23 14:20:00,
2013-05-23 10:36:00,70.9,63.0,29.76,WSW,237,3.0,20.0,77,0.00,,,0.01,weatherlink.com 1.10,2013-05-23 14:36:00,
2013-05-23 10:50:00,72.0,63.0,29.76,SSE,162,5.0,15.0,74,0.00,,,0.01,weatherlink.com 1.10,2013-05-23 14:50:00,
2013-05-23 11:06:00,71.6,63.0,29.76,SW,217,6.0,12.0,73,0.00,,,0.01,weatherlink.com 1.10,2013-05-23 15:06:00,
2013-05-23 11:20:00,71.5,62.0,29.76,WSW,250,11.0,13.0,73,0.00,,,0.01,weatherlink.com 1.10,2013-05-23 15:20:00,
2013-05-23 11:35:00,71.0,62.0,29.76,SW,219,9.0,19.0,72,0.00,,,0.01,weatherlink.com 1.10,2013-05-23 15:35:00,
2013-05-23 11:51:00,71.4,62.0,29.76,SW,226,2.0,17.0,73,0.00,,,0.01,weatherlink.com 1.10,2013-05-23 15:51:00,
2013-05-23 12:06:00,71.4,62.0,29.76,ENE,78,11.0,23.0,71,0.00,,,0.01,weatherlink.com 1.10,2013-05-23 16:06:00,
2013-05-23 12:21:00,71.1,62.0,29.75,South,169,9.0,18.0,73,0.00,,,0.01,weatherlink.com 1.10,2013-05-23 16:21:00,
2013-05-23 12:35:00,71.0,63.0,29.75,SSW,210,5.0,16.0,75,0.00,,,0.01,weatherlink.com 1.10,2013-05-23 16:35:00,
2013-05-23 12:51:00,71.8,63.0,29.75,WSW,248,15.0,17.0,74,0.00,,,0.01,weatherlink.com 1.10,2013-05-23 16:51:00,
2013-05-23 13:05:00,71.0,63.0,29.75,SSW,206,12.0,22.0,75,0.00,,,0.01,weatherlink.com 1.10,2013-05-23 17:05:00,
2013-05-23 13:21:00,70.4,63.0,29.75,SSW,212,9.0,13.0,78,0.00,,,0.01,weatherlink.com 1.10,2013-05-23 17:21:00,
2013-05-23 13:35:00,70.2,63.0,29.74,SSW,209,9.0,15.0,78,0.00,,,0.01,weatherlink.com 1.10,2013-05-23 17:35:00,
2013-05-23 13:51:00,70.5,63.0,29.73,South,190,7.0,17.0,78,0.00,,,0.01,weatherlink.com 1.10,2013-05-23 17:51:00,
2013-05-23 14:06:00,71.1,63.0,29.73,West,268,3.0,18.0,76,0.00,,,0.01,weatherlink.com 1.10,2013-05-23 18:06:00,
2013-05-23 14:22:00,72.7,64.0,29.73,SW,230,11.0,15.0,73,0.00,,,0.01,weatherlink.com 1.10,2013-05-23 18:22:00,
2013-05-23 14:36:00,73.1,63.0,29.72,SE,136,6.0,21.0,70,0.00,,,0.01,weatherlink.com 1.10,2013-05-23 18:36:00,
2013-05-23 14:55:00,73.7,62.0,29.71,SW,233,6.0,21.0,67,0.00,,,0.00,weatherlink.com 1.10,2013-05-23 18:55:00,
2013-05-23 15:06:00,73.9,62.0,29.71,South,176,8.0,14.0,67,0.00,,,0.00,weatherlink.com 1.10,2013-05-23 19:06:00,
2013-05-23 15:20:00,73.9,63.0,29.70,SSE,161,3.0,16.0,68,0.00,,,0.00,weatherlink.com 1.10,2013-05-23 19:20:00,
2013-05-23 15:36:00,74.1,63.0,29.70,SW,233,4.0,16.0,69,0.00,,,0.00,weatherlink.com 1.10,2013-05-23 19:36:00,
2013-05-23 15:50:00,70.8,58.0,29.71,WNW,282,13.0,15.0,65,0.00,,,0.00,weatherlink.com 1.10,2013-05-23 19:50:00,
2013-05-23 16:06:00,66.7,58.0,29.72,WNW,292,4.0,17.0,73,0.01,,,0.01,weatherlink.com 1.10,2013-05-23 20:06:00,
2013-05-23 16:20:00,62.1,59.0,29.71,SW,228,2.0,11.0,90,0.25,,,0.25,weatherlink.com 1.10,2013-05-23 20:20:00,
2013-05-23 16:36:00,62.8,60.0,29.71,SE,136,1.0,4.0,90,0.26,,,0.26,weatherlink.com 1.10,2013-05-23 20:36:00,
2013-05-23 16:50:00,63.5,60.0,29.71,SSE,163,2.0,7.0,89,0.26,,,0.26,weatherlink.com 1.10,2013-05-23 20:50:00,
2013-05-23 17:07:00,63.8,61.0,29.71,SW,223,1.0,4.0,91,0.24,,,0.26,weatherlink.com 1.10,2013-05-23 21:07:00,
2013-05-23 17:21:00,63.8,62.0,29.70,SE,146,0.0,4.0,92,0.01,,,0.26,weatherlink.com 1.10,2013-05-23 21:21:00,
2013-05-23 17:37:00,64.5,62.0,29.70,SE,145,1.0,2.0,92,0.00,,,0.26,weatherlink.com 1.10,2013-05-23 21:37:00,
2013-05-23 17:51:00,64.9,62.0,29.71,SSW,196,3.0,8.0,91,0.00,,,0.26,weatherlink.com 1.10,2013-05-23 21:51:00,
2013-05-23 18:06:00,64.3,62.0,29.72,SE,126,5.0,7.0,92,0.00,,,0.26,weatherlink.com 1.10,2013-05-23 22:06:00,
2013-05-23 18:22:00,63.8,62.0,29.72,ESE,110,2.0,6.0,93,0.00,,,0.26,weatherlink.com 1.10,2013-05-23 22:22:00,
2013-05-23 18:36:00,63.8,62.0,29.72,SSE,151,3.0,6.0,92,0.00,,,0.26,weatherlink.com 1.10,2013-05-23 22:36:00,
2013-05-23 18:51:00,63.4,61.0,29.73,SSW,196,1.0,8.0,93,0.00,,,0.26,weatherlink.com 1.10,2013-05-23 22:51:00,
2013-05-23 19:06:00,62.9,61.0,29.73,South,172,4.0,8.0,94,0.00,,,0.26,weatherlink.com 1.10,2013-05-23 23:06:00,
2013-05-23 19:22:00,62.7,61.0,29.73,South,179,1.0,5.0,95,0.00,,,0.26,weatherlink.com 1.10,2013-05-23 23:22:00,
2013-05-23 19:36:00,62.8,61.0,29.74,SE,129,0.0,2.0,95,0.00,,,0.26,weatherlink.com 1.10,2013-05-23 23:36:00,
2013-05-23 19:52:00,62.8,62.0,29.73,NE,40,1.0,2.0,96,0.01,,,0.27,weatherlink.com 1.10,2013-05-23 23:52:00,
2013-05-23 20:08:00,62.2,61.0,29.75,ESE,112,0.0,1.0,96,0.01,,,0.27,weatherlink.com 1.10,2013-05-24 00:08:00,
2013-05-23 20:22:00,62.3,61.0,29.75,ESE,112,0.0,0.0,96,0.01,,,0.27,weatherlink.com 1.10,2013-05-24 00:22:00,
2013-05-23 20:37:00,62.1,61.0,29.75,ESE,112,0.0,0.0,97,0.02,,,0.28,weatherlink.com 1.10,2013-05-24 00:37:00,
2013-05-23 20:53:00,61.8,61.0,29.74,East,98,0.0,1.0,97,0.01,,,0.28,weatherlink.com 1.10,2013-05-24 00:53:00,
2013-05-23 21:07:00,61.6,61.0,29.73,East,98,0.0,0.0,97,0.01,,,0.28,weatherlink.com 1.10,2013-05-24 01:07:00,
2013-05-23 21:22:00,61.7,61.0,29.74,East,98,0.0,1.0,98,0.01,,,0.28,weatherlink.com 1.10,2013-05-24 01:22:00,
2013-05-23 21:37:00,61.8,61.0,29.73,East,98,0.0,1.0,98,0.00,,,0.28,weatherlink.com 1.10,2013-05-24 01:37:00,
2013-05-23 21:52:00,61.7,61.0,29.73,East,98,0.0,0.0,98,0.00,,,0.28,weatherlink.com 1.10,2013-05-24 01:52:00,
2013-05-23 22:07:00,61.5,61.0,29.73,East,98,0.0,0.0,98,0.00,,,0.28,weatherlink.com 1.10,2013-05-24 02:07:00,
2013-05-23 22:22:00,61.3,61.0,29.73,East,98,0.0,0.0,98,0.00,,,0.28,weatherlink.com 1.10,2013-05-24 02:22:00,
2013-05-23 22:37:00,61.3,61.0,29.73,NW,307,3.0,5.0,98,0.00,,,0.28,weatherlink.com 1.10,2013-05-24 02:37:00,
2013-05-23 22:52:00,60.5,60.0,29.73,NNW,332,2.0,8.0,98,0.00,,,0.28,weatherlink.com 1.10,2013-05-24 02:52:00,
2013-05-23 23:07:00,60.0,60.0,29.74,WNW,299,1.0,7.0,98,0.00,,,0.28,weatherlink.com 1.10,2013-05-24 03:07:00,
2013-05-23 23:22:00,59.5,59.0,29.74,WNW,294,7.0,7.0,98,0.00,,,0.28,weatherlink.com 1.10,2013-05-24 03:22:00,
2013-05-23 23:37:00,56.9,56.0,29.74,SSE,168,2.0,10.0,96,0.00,,,0.28,weatherlink.com 1.10,2013-05-24 03:37:00,
2013-05-23 23:52:00,54.8,54.0,29.74,NW,313,7.0,12.0,98,0.00,,,0.28,weatherlink.com 1.10,2013-05-24 03:52:00,